Weather History for K3R7 - March, 2013

Change the Weather History Date:

Saturday, March 2, 2013

  Actual Average (KLCH) Record (KLCH)
Temperature  
Mean Temperature 42 °F 58 °F  
Max Temperature 48 °F 68 °F 84 °F (1905)
Min Temperature 35 °F 49 °F 24 °F (1913)
Degree Days  
Heating Degree Days 24 8  
Month to date heating degree days 16  
Since 1 July heating degree days 1298  
Cooling Degree Days 0 1  
Month to date cooling degree days 2  
Year to date cooling degree days 25  
Moisture  
Dew Point 30 °F    
Average Humidity 64    
Maximum Humidity 89    
Minimum Humidity 42    
Precipitation  
Precipitation 0.00 in 0.12 in 2.54 in (2001)
Month to date precipitation 0.24  
Year to date precipitation 8.93  
Snow  
Snow 0.00 in 0.00 in 0.00 in ()
Month to date snowfall 0.0  
Since 1 July snowfall 0.1  
Snow Depth -    
Sea Level Pressure  
Sea Level Pressure 30.24 in    
Wind  
Wind Speed 8 mph (NNW)    
Max Wind Speed 18 mph    
Max Gust Speed 25 mph    
Visibility 10 miles    
Events      
T = Trace of Precipitation, MM = Missing Value Source: NWS Daily Summary

Daily Weather History Graph

Daily Weather History Graph

Search for Another Location

Airport or City:

Trip Planner

Search our weather history database for the weather conditions in past years. The results will help you decide how hot, cold, wet, or windy it might be!

Date:

Astronomy

Mar. 02, 2013 Rise Set
Actual Time 6:35 AM CST 6:10 PM CST
Civil Twilight 6:11 AM CST 6:34 PM CST
Nautical Twilight 5:43 AM CST 7:02 PM CST
Astronomical Twilight 5:15 AM CST 7:30 PM CST
Moon 11:23 PM CST (3/2) 9:28 AM CST (3/2)
Length of Visible Light 12h 23m
Length of Day
11h 35m
Waning Gibbous, 74% of the Moon is Illuminated
Mar 2
Waning Gibbous
Mar 4
Last Quarter
Mar 11
New
Mar 19
First Quarter
Mar 27
Full

Hourly Weather History & Observations

Time (CST) Temp. Windchill Dew Point Humidity Pressure Visibility Wind Dir Wind Speed Gust Speed Precip Events Conditions
12:15 AM 41.9 °F 39.0 °F 34.3 °F 75% 30.19 in 10.0 mi West 4.6 mph - N/A   Clear
12:35 AM 42.8 °F 40.1 °F 34.0 °F 71% 30.19 in 10.0 mi West 4.6 mph - N/A   Clear
12:55 AM 43.0 °F 40.3 °F 33.8 °F 70% 30.19 in 10.0 mi West 4.6 mph - N/A   Clear
1:15 AM 41.7 °F 38.8 °F 33.3 °F 72% 30.19 in 10.0 mi West 4.6 mph - N/A   Clear
1:35 AM 40.3 °F 37.1 °F 33.1 °F 75% 30.19 in 10.0 mi WNW 4.6 mph - N/A   Clear
1:55 AM 40.6 °F 37.5 °F 34.2 °F 78% 30.19 in 10.0 mi West 4.6 mph - N/A   Clear
2:15 AM 40.5 °F 37.3 °F 33.8 °F 77% 30.19 in 10.0 mi West 4.6 mph - N/A   Clear
2:35 AM 39.6 °F 35.4 °F 34.0 °F 80% 30.19 in 10.0 mi WNW 5.8 mph - N/A   Clear
2:55 AM 38.7 °F 34.3 °F 33.8 °F 83% 30.19 in 10.0 mi WNW 5.8 mph - N/A   Clear
3:15 AM 38.5 °F 35.0 °F 33.8 °F 83% 30.19 in 10.0 mi WNW 4.6 mph - N/A   Clear
3:35 AM 38.8 °F 33.8 °F 33.8 °F 82% 30.19 in 10.0 mi WNW 6.9 mph - N/A   Clear
3:55 AM 39.7 °F 34.9 °F 33.8 °F 79% 30.20 in 10.0 mi WNW 6.9 mph - N/A   Clear
4:15 AM 39.4 °F 34.5 °F 33.3 °F 79% 30.20 in 10.0 mi NW 6.9 mph - N/A   Clear
4:35 AM 39.4 °F 34.5 °F 32.9 °F 78% 30.20 in 10.0 mi NW 6.9 mph - N/A   Clear
4:55 AM 38.7 °F 32.9 °F 32.9 °F 80% 30.21 in 10.0 mi NW 8.1 mph - N/A   Clear
5:15 AM 38.1 °F 32.9 °F 32.9 °F 81% 30.22 in 10.0 mi NW 6.9 mph - N/A   Clear
5:55 AM 37.4 °F 31.4 °F 32.5 °F 83% 30.23 in 10.0 mi NNW 8.1 mph - N/A   Clear
6:15 AM 36.7 °F 29.9 °F 32.9 °F 86% 30.23 in 10.0 mi North 9.2 mph - N/A   Clear
6:35 AM 36.0 °F 29.6 °F 32.9 °F 89% 30.23 in 10.0 mi North 8.1 mph - N/A   Clear
6:55 AM 35.8 °F 29.4 °F 32.5 °F 88% 30.25 in 10.0 mi North 8.1 mph - N/A   Clear
7:15 AM 36.5 °F 28.7 °F 32.9 °F 87% 30.26 in 10.0 mi NNW 11.5 mph 16.1 mph N/A   Clear
7:35 AM 37.4 °F 29.8 °F 31.6 °F 80% 30.27 in 10.0 mi North 11.5 mph - N/A   Clear
7:55 AM 37.9 °F 30.9 °F 31.8 °F 79% 30.28 in 10.0 mi North 10.4 mph - N/A   Clear
8:15 AM 38.8 °F 31.2 °F 30.7 °F 73% 30.28 in 10.0 mi North 12.7 mph 19.6 mph N/A   Clear
8:35 AM 39.6 °F 31.3 °F 30.2 °F 69% 30.29 in 10.0 mi NNW 15.0 mph 18.4 mph N/A   Clear
8:55 AM 40.3 °F 32.2 °F 28.8 °F 63% 30.29 in 10.0 mi North 15.0 mph 20.7 mph N/A   Clear
9:15 AM 40.8 °F 32.9 °F 27.1 °F 58% 30.29 in 10.0 mi NNW 15.0 mph 23.0 mph N/A   Clear
9:35 AM 41.2 °F 32.4 °F 26.2 °F 55% 30.29 in 10.0 mi NW 18.4 mph 25.3 mph N/A   Clear
9:55 AM 41.5 °F 33.8 °F 26.6 °F 55% 30.29 in 10.0 mi NNW 15.0 mph 18.4 mph N/A   Clear
10:15 AM 43.0 °F 35.1 °F 27.9 °F 55% 30.29 in 10.0 mi North 17.3 mph - N/A   Scattered Clouds
10:35 AM 42.8 °F 35.4 °F 26.2 °F 52% 30.28 in 10.0 mi NNW 15.0 mph 21.9 mph N/A   Mostly Cloudy
10:55 AM 43.0 °F 34.8 °F 26.1 °F 51% 30.29 in 10.0 mi NNW 18.4 mph 23.0 mph N/A   Mostly Cloudy
11:15 AM 42.6 °F 35.2 °F 25.2 °F 50% 30.29 in 10.0 mi NNW 15.0 mph 25.3 mph N/A   Mostly Cloudy
11:35 AM 43.9 °F 36.5 °F 25.3 °F 48% 30.28 in 10.0 mi NNW 16.1 mph 21.9 mph N/A   Scattered Clouds
11:55 AM 44.4 °F 37.5 °F 26.2 °F 49% 30.28 in 10.0 mi North 15.0 mph 20.7 mph N/A   Scattered Clouds
12:15 PM 43.7 °F 36.6 °F 25.3 °F 48% 30.27 in 10.0 mi NNW 15.0 mph 20.7 mph N/A   Scattered Clouds
12:35 PM 44.6 °F 38.8 °F 25.5 °F 47% 30.26 in 10.0 mi North 11.5 mph - N/A   Scattered Clouds
12:55 PM 44.8 °F 38.3 °F 25.7 °F 47% 30.25 in 10.0 mi NNW 13.8 mph 20.7 mph N/A   Scattered Clouds
1:15 PM 45.1 °F 38.4 °F 25.9 °F 47% 30.24 in 10.0 mi NNW 15.0 mph 19.6 mph N/A   Clear
1:35 PM 45.7 °F 39.1 °F 25.5 °F 45% 30.23 in 10.0 mi North 15.0 mph 19.6 mph N/A   Clear
1:55 PM 45.7 °F 39.5 °F 25.0 °F 44% 30.23 in 10.0 mi NNW 13.8 mph 19.6 mph N/A   Clear
2:15 PM 46.4 °F 41.1 °F 25.9 °F 45% 30.23 in 10.0 mi NNW 11.5 mph 20.7 mph N/A   Scattered Clouds
2:35 PM 46.8 °F - 25.7 °F 44% 30.22 in 10.0 mi NW 11.5 mph - N/A   Scattered Clouds
2:55 PM 47.3 °F - 25.7 °F 43% 30.22 in 10.0 mi NW 15.0 mph - N/A   Scattered Clouds
3:15 PM 47.1 °F - 25.0 °F 42% 30.22 in 10.0 mi NW 10.4 mph - N/A   Scattered Clouds
3:35 PM 47.8 °F - 26.6 °F 44% 30.22 in 10.0 mi NNW 10.4 mph - N/A   Scattered Clouds
3:55 PM 48.0 °F - 25.9 °F 42% 30.22 in 10.0 mi NNW 10.4 mph 17.3 mph N/A   Mostly Cloudy
4:15 PM 48.7 °F - 27.1 °F 43% 30.22 in 10.0 mi North 9.2 mph - N/A   Scattered Clouds
4:35 PM 48.2 °F - 26.4 °F 43% 30.21 in 10.0 mi NNW 15.0 mph 20.7 mph N/A   Scattered Clouds
4:55 PM 48.0 °F - 25.7 °F 42% 30.22 in 10.0 mi NNW 12.7 mph 19.6 mph N/A   Clear
5:15 PM 47.5 °F - 27.0 °F 45% 30.22 in 10.0 mi NNW 11.5 mph - N/A   Clear
5:35 PM 47.1 °F - 27.3 °F 46% 30.23 in 10.0 mi North 9.2 mph - N/A   Clear
5:55 PM 46.6 °F - 26.6 °F 46% 30.23 in 10.0 mi North 10.4 mph 16.1 mph N/A   Clear
6:15 PM 45.5 °F 41.3 °F 28.2 °F 51% 30.24 in 10.0 mi NNW 8.1 mph - N/A   Clear
6:35 PM 44.6 °F 41.4 °F 27.5 °F 51% 30.25 in 10.0 mi NW 5.8 mph - N/A   Clear
6:55 PM 43.7 °F 39.7 °F 29.8 °F 58% 30.25 in 10.0 mi NW 6.9 mph - N/A   Clear
7:15 PM 43.3 °F 38.6 °F 30.4 °F 60% 30.27 in 10.0 mi NNW 8.1 mph - N/A   Clear
7:35 PM 43.5 °F 39.4 °F 30.6 °F 60% 30.27 in 10.0 mi NW 6.9 mph - N/A   Clear
7:55 PM 42.8 °F 40.1 °F 30.7 °F 62% 30.27 in 10.0 mi North 4.6 mph - N/A   Clear
8:15 PM 41.9 °F 40.0 °F 31.6 °F 67% 30.28 in 10.0 mi NNW 3.5 mph - N/A   Clear
8:35 PM 41.5 °F 39.6 °F 32.0 °F 69% 30.28 in 10.0 mi NNW 3.5 mph - N/A   Clear
8:55 PM 41.0 °F 39.0 °F 30.4 °F 66% 30.28 in 10.0 mi North 3.5 mph - N/A   Clear
9:15 PM 40.6 °F - 30.7 °F 68% 30.28 in 10.0 mi Calm Calm - N/A   Clear
9:35 PM 40.6 °F - 29.3 °F 64% 30.28 in 10.0 mi Calm Calm - N/A   Clear
9:55 PM 39.4 °F - 30.7 °F 71% 30.28 in 10.0 mi Calm Calm - N/A   Clear
10:15 PM 38.8 °F - 31.6 °F 75% 30.28 in 10.0 mi Calm Calm - N/A   Clear
10:35 PM 39.2 °F - 31.8 °F 75% 30.28 in 10.0 mi Calm Calm - N/A   Clear
10:55 PM 39.2 °F - 31.1 °F 73% 30.28 in 10.0 mi Calm Calm - N/A   Clear
11:15 PM 38.7 °F - 31.8 °F 76% 30.28 in 10.0 mi Calm Calm - N/A   Clear
11:35 PM 38.1 °F - 31.5 °F 77% 30.27 in 10.0 mi Calm Calm - N/A   Clear
11:55 PM 36.7 °F - 31.5 °F 81% 30.27 in 10.0 mi Calm Calm - N/A   Clear